sat.trackr.live / text

‹ back to catalog

STARLINK-34598

NORAD 64759 · 2025-147E

PAYLOAD ACTIVE UNKNOWN

§ Identity

Operator
Country
US
Launch date
2025-07-08
Launch site
AFETR
Launch vehicle
Mass (kg)
RCS (m²)

Purposes: comms

External: N2YO · Heavens-Above · Gunter

§ Orbital elements

Epoch: 2026-05-24T18:22:02.142048Z

Period
93.90 min
Inclination
53.1589°
Eccentricity
0.0001172
Mean motion
15.33548263 rev/d
Perigee alt
464.4 km
Apogee alt
466.0 km
Semi-major
6,843.4 km
B*
7.6688e-4
RAAN
249.0743°
Arg perigee
76.4519°
Mean anomaly
283.6614°
Rev number
5,035

§ Raw data

STARLINK-345981 64759U 25147E   26144.76530257  .00024932  00000+0  76688-3 0  99992 64759  53.1589 249.0743 0001172  76.4519 283.6614 15.33548263 50359

JSON: /api/v1/satellites/64759 · /tle

For live sub-satellite position, see the globe view (requires WebGL).

§ Visibility from observer

Set your observer location to see the next 7 days of passes ≥ 10°. The values pass through the URL so the page stays shareable.

No JS? Fill the form by hand. The geolocation button needs JavaScript.